パンスターズ彗星

C/2017 Y2 ( PanSTARRS )

English version
Home page
Updated on December 11, 2022

---------------------------------------------------------------------

・ プロフィール

発見日 2017年12月24日
発見光度 22.1等
発見者 Pan-STARRS 1 telescope (Haleakala)

・ 写真集

・ 軌道要素

Epoch 2022 Jan. 21.0 TT = JDT 2459600.5
T 2020 Nov. 4.91756 TT                                  Rudenko
q   4.6327268            (2000.0)            P               Q
z  -0.0002035      Peri.  147.91619     -0.04314234     -0.69704739
 +/-0.0000006      Node    65.99625     -0.99885809     +0.01537658
e   1.0009427      Incl.  128.41946     +0.02052456     -0.71686017
From 894 observations 2017 Dec. 24-2022 Feb. 19, mean residual 0".5.

・ 星図

・ 光度変化

        m1 = 5.0 + 5 logΔ + 12.0 log r(t - 100)

---------------------------------------------------------------------

軌道要素はM.P.E.C. 2022-D36に掲載されたものです。
光度グラフはComet for Windowsで作成したものです。

---------------------------------------------------------------------

Copyright(C) Seiichi Yoshida (comet@aerith.net). All rights reserved.